EW1714 Weather Reports


time (UTC)temp
C
wind
direction
speed
KPH
gust
KPH
rain 1hr
cm
rain 24hr
cm
rain mn
cm
humidity
%
barometer
mb
20260504223507 21 165 3.2 9.7 0.00 0.00 0.00 34 1006.5
20260504223029 21 276 0.0 8.0 0.00 0.00 0.00 35 1006.5
20260504222510 21 248 0.0 8.0 0.00 0.00 0.00 34 1006.4
20260504222010 21 203 0.0 12.9 0.00 0.00 0.00 34 1006.4
20260504221507 21 267 1.6 12.9 0.00 0.00 0.00 33 1006.5
20260504221005 21 163 1.6 14.5 0.00 0.00 0.00 34 1006.4
20260504220504 21 256 0.0 17.7 0.00 0.00 0.00 33 1006.5
20260504220015 21 189 3.2 17.7 0.00 0.00 0.00 33 1006.5
20260504215503 21 122 0.0 17.7 0.00 0.00 0.00 33 1006.5
20260504215008 21 158 1.6 17.7 0.00 0.00 0.00 32 1006.6
20260504214522 21 245 1.6 12.9 0.00 0.00 0.00 33 1006.5
20260504214009 22 168 1.6 20.9 0.00 0.00 0.00 32 1006.5
20260504213508 22 320 1.6 20.9 0.00 0.00 0.00 32 1006.5
20260504213028 22 212 1.6 16.1 0.00 0.00 0.00 32 1006.5
20260504212507 22 238 1.6 19.3 0.00 0.00 0.00 31 1006.5
20260504212006 22 213 3.2 19.3 0.00 0.00 0.00 31 1006.7
20260504211535 22 119 1.6 16.1 0.00 0.00 0.00 32 1006.6
20260504211007 22 214 1.6 17.7 0.00 0.00 0.00 31 1006.5
20260504210511 22 147 4.8 17.7 0.00 0.00 0.00 31 1006.7
20260504210012 22 203 1.6 14.5 0.00 0.00 0.00 31 1006.7
20260504205504 23 219 1.6 9.7 0.00 0.00 0.00 29 1006.5
20260504205005 23 266 0.0 12.9 0.00 0.00 0.00 30 1006.6
20260504204518 23 250 1.6 14.5 0.00 0.00 0.00 31 1006.6
20260504204002 23 360 1.6 19.3 0.00 0.00 0.00 30 1006.5
20260504203502 23 198 4.8 19.3 0.00 0.00 0.00 29 1006.7
20260504203003 24 252 3.2 19.3 0.00 0.00 0.00 30 1006.6
20260504202503 24 217 1.6 17.7 0.00 0.00 0.00 29 1006.6
20260504202003 24 266 4.8 17.7 0.00 0.00 0.00 29 1006.6
20260504201503 25 20 4.8 14.5 0.00 0.00 0.00 28 1006.5
20260504201004 24 62 1.6 12.9 0.00 0.00 0.00 29 1006.5
20260504200502 23 206 1.6 9.7 0.00 0.00 0.00 30 1006.5
20260504200007 23 292 0.0 11.3 0.00 0.00 0.00 33 1006.5
20260504195503 23 210 0.0 11.3 0.00 0.00 0.00 32 1006.6
20260504195003 22 245 1.6 11.3 0.00 0.00 0.00 30 1006.7
20260504194511 22 206 1.6 12.9 0.00 0.00 0.00 30 1006.7
20260504194004 23 169 3.2 29.0 0.00 0.00 0.00 30 1006.8
20260504193506 23 250 3.2 29.0 0.00 0.00 0.00 29 1006.8
20260504193021 23 262 3.2 20.9 0.00 0.00 0.00 28 1006.7
20260504192505 24 266 3.2 20.9 0.00 0.00 0.00 27 1006.8
20260504192003 25 243 1.6 12.9 0.00 0.00 0.00 31 1006.8
20260504191505 24 203 1.6 14.5 0.00 0.00 0.00 28 1006.8
20260504191003 24 237 0.0 14.5 0.00 0.00 0.00 28 1006.7
20260504190503 24 125 1.6 14.5 0.00 0.00 0.00 29 1006.9
20260504190007 23 115 1.6 17.7 0.00 0.00 0.00 30 1006.8
20260504185504 24 227 1.6 17.7 0.00 0.00 0.00 28 1006.9
20260504185004 25 198 4.8 14.5 0.00 0.00 0.00 26 1007.1
20260504184510 25 195 1.6 20.9 0.00 0.00 0.00 27 1007.0
20260504184004 25 236 3.2 20.9 0.00 0.00 0.00 27 1007.1
20260504183504 25 272 3.2 20.9 0.00 0.00 0.00 27 1007.1
20260504183015 25 205 4.8 17.7 0.00 0.00 0.00 27 1007.1
20260504182503 25 104 1.6 16.1 0.00 0.00 0.00 27 1007.2
20260504182008 25 195 4.8 19.3 0.00 0.00 0.00 27 1007.3
20260504181519 24 207 1.6 19.3 0.00 0.00 0.00 28 1007.2
20260504181009 24 183 0.0 17.7 0.00 0.00 0.00 29 1007.2
20260504180504 24 193 8.0 17.7 0.00 0.00 0.00 27 1007.2
20260504180004 23 101 3.2 24.1 0.00 0.00 0.00 28 1007.3
20260504175503 23 200 4.8 24.1 0.00 0.00 0.00 28 1007.2
20260504175004 23 188 4.8 20.9 0.00 0.00 0.00 29 1007.3
20260504174508 23 230 1.6 20.9 0.00 0.00 0.00 29 1007.3
20260504174005 23 253 3.2 19.3 0.00 0.00 0.00 31 1007.3
20260504173505 23 129 3.2 19.3 0.00 0.00 0.00 29 1007.4
20260504173013 23 238 4.8 17.7 0.00 0.00 0.00 28 1007.5
20260504172503 23 184 3.2 22.5 0.00 0.00 0.00 29 1007.6
20260504172008 23 181 6.4 22.5 0.00 0.00 0.00 30 1007.5
20260504171514 23 166 4.8 16.1 0.00 0.00 0.00 29 1007.5
20260504171007 23 191 1.6 20.9 0.00 0.00 0.00 30 1007.5
20260504170508 22 278 4.8 20.9 0.00 0.00 0.00 30 1007.8
20260504151004 21 182 0.0 11.3 0.00 0.00 0.00 36 1008.8
20260504150506 21 260 1.6 17.7 0.00 0.00 0.00 36 1009.0
20260504141006 18 176 1.6 19.3 0.00 0.00 0.00 40 1009.4
20260504140505 18 249 4.8 19.3 0.00 0.00 0.00 40 1009.4
20260504130508 13 151 4.8 11.3 0.00 0.00 0.00 49 1010.2
20260504110502 6 160 0.0 0.0 0.00 0.00 0.00 77 1010.4
20260504100503 6 159 0.0 0.0 0.00 0.00 0.00 75 1010.7
20260504082003 6 142 0.0 0.0 0.00 0.00 0.00 69 1010.5
20260504081506 6 142 0.0 0.0 0.00 0.00 0.00 69 1010.4
20260504081003 6 142 0.0 0.0 0.00 0.00 0.00 68 1010.4
20260504080504 6 142 0.0 0.0 0.00 0.00 0.00 67 1010.4
20260504050506 2 360 0.0 0.0 0.00 0.00 0.00 88 1010.6
20260504050021 2 360 0.0 0.0 0.00 0.00 0.00 88 1010.6
20260504045504 2 360 0.0 0.0 0.00 0.00 0.00 88 1010.7
20260504045004 1 360 0.0 0.0 0.00 0.00 0.00 87 1010.7
20260504044515 1 360 0.0 0.0 0.00 0.00 0.00 86 1010.8
20260504044004 1 360 0.0 0.0 0.00 0.00 0.00 85 1010.7
20260504043504 1 360 0.0 0.0 0.00 0.00 0.00 85 1010.7
20260504043016 2 360 0.0 0.0 0.00 0.00 0.00 84 1010.7
20260504042506 2 360 0.0 0.0 0.00 0.00 0.00 84 1010.7
20260504042006 2 360 0.0 0.0 0.00 0.00 0.00 83 1010.7
20260504041529 2 360 0.0 0.0 0.00 0.00 0.00 83 1010.7
20260504041006 2 360 0.0 0.0 0.00 0.00 0.00 83 1010.6
20260504040508 2 360 0.0 0.0 0.00 0.00 0.00 83 1010.6
20260504040019 2 360 0.0 0.0 0.00 0.00 0.00 83 1010.6
20260504035508 2 360 0.0 0.0 0.00 0.00 0.00 82 1010.6
20260504035008 2 360 0.0 0.0 0.00 0.00 0.00 82 1010.5
20260504034519 2 360 0.0 0.0 0.00 0.00 0.00 82 1010.4
20260504034005 2 360 0.0 0.0 0.00 0.00 0.00 82 1010.4
20260504033506 2 360 0.0 0.0 0.00 0.00 0.00 81 1010.4
20260504033020 2 360 0.0 0.0 0.00 0.00 0.00 80 1010.3
20260504032504 2 360 0.0 0.0 0.00 0.00 0.00 80 1010.3
20260504032005 2 360 0.0 0.0 0.00 0.00 0.00 80 1010.3
20260504031520 3 360 0.0 0.0 0.00 0.00 0.00 79 1010.3
20260504031006 3 360 0.0 0.0 0.00 0.00 0.00 79 1010.3
20260504030507 3 360 0.0 0.0 0.00 0.00 0.00 79 1010.4
20260504030021 3 360 0.0 0.0 0.00 0.00 0.00 78 1010.3
20260504025507 3 360 0.0 0.0 0.00 0.00 0.00 78 1010.4
20260504025008 3 360 0.0 0.0 0.00 0.00 0.00 78 1010.4
20260504024523 3 360 0.0 0.0 0.00 0.00 0.00 78 1010.4
20260504024009 3 360 0.0 0.0 0.00 0.00 0.00 77 1010.3
20260504023504 3 360 0.0 0.0 0.00 0.00 0.00 76 1010.3
20260504023010 3 360 0.0 0.0 0.00 0.00 0.00 75 1010.3
20260504022505 4 360 0.0 0.0 0.00 0.00 0.00 75 1010.3
20260504022004 4 360 0.0 0.0 0.00 0.00 0.00 75 1010.3
20260504021513 4 360 0.0 0.0 0.00 0.00 0.00 75 1010.3
20260504021004 4 360 0.0 0.0 0.00 0.00 0.00 74 1010.2
20260504020506 4 360 0.0 0.0 0.00 0.00 0.00 73 1010.1
20260504020020 5 360 0.0 0.0 0.00 0.00 0.00 72 1010.1
20260504015508 5 360 0.0 0.0 0.00 0.00 0.00 72 1010.0
20260504015010 5 360 0.0 0.0 0.00 0.00 0.00 71 1010.0
20260504014504 5 360 0.0 0.0 0.00 0.00 0.00 70 1010.0
20260504014004 5 360 0.0 0.0 0.00 0.00 0.00 70 1009.9
20260504013503 6 360 0.0 0.0 0.00 0.00 0.00 69 1009.9
20260504013005 6 360 0.0 0.0 0.00 0.00 0.00 68 1009.9
20260504012503 6 360 0.0 0.0 0.00 0.00 0.00 68 1009.8
20260504012005 6 360 0.0 0.0 0.00 0.00 0.00 66 1009.8
20260504011512 6 360 0.0 0.0 0.00 0.00 0.00 66 1009.8
20260504011003 6 360 0.0 0.0 0.00 0.00 0.00 66 1009.7
20260504010508 6 360 0.0 0.0 0.00 0.00 0.00 64 1009.7
20260504010015 6 360 0.0 0.0 0.00 0.00 0.00 63 1009.6
20260504005507 7 360 0.0 0.0 0.00 0.00 0.00 62 1009.6
20260504005005 7 360 0.0 0.0 0.00 0.00 0.00 63 1009.5
20260504004522 7 360 0.0 0.0 0.00 0.00 0.00 60 1009.4
20260504004008 7 360 0.0 0.0 0.00 0.00 0.00 59 1009.3
20260504003511 7 360 0.0 0.0 0.00 0.00 0.00 58 1009.3
20260504003029 8 360 0.0 0.0 0.00 0.00 0.00 58 1009.3
20260504002503 8 360 0.0 0.0 0.00 0.00 0.00 56 1009.2
20260504002007 8 360 0.0 0.0 0.00 0.00 0.00 55 1009.1
20260504001509 8 360 0.0 0.0 0.00 0.00 0.00 54 1009.0
20260504001004 9 360 0.0 0.0 0.00 0.00 0.00 52 1009.0
20260504000505 9 360 0.0 0.0 0.00 0.00 0.00 51 1009.0
20260504000014 10 360 0.0 0.0 0.00 0.00 0.00 50 1009.0
20260503235505 10 360 0.0 0.0 0.00 0.00 0.00 49 1008.9
20260503235005 10 360 0.0 0.0 0.00 0.00 0.00 47 1008.9
20260503234518 10 360 0.0 0.0 0.00 0.00 0.00 47 1008.8
20260503234005 10 360 0.0 0.0 0.00 0.00 0.00 48 1008.7
20260503233505 10 360 0.0 0.0 0.00 0.00 0.00 46 1008.7
20260503233033 10 360 0.0 0.0 0.00 0.00 0.00 45 1008.7
20260503232507 10 1 0.0 0.0 0.00 0.00 0.00 45 1008.6
20260503232008 11 1 0.0 12.9 0.00 0.00 0.00 45 1008.6
20260503231523 11 359 3.2 12.9 0.00 0.00 0.00 44 1008.5
20260503231011 11 238 0.0 16.1 0.00 0.00 0.00 44 1008.5
20260503230503 11 359 0.0 16.1 0.00 0.00 0.00 44 1008.4
20260503230011 11 335 4.8 12.9 0.00 0.00 0.00 43 1008.4
20260503225504 11 248 0.0 14.5 0.00 0.00 0.00 43 1008.3
20260503225004 11 332 3.2 24.1 0.00 0.00 0.00 44 1008.2
20260503224512 11 338 6.4 24.1 0.00 0.00 0.00 43 1008.2
20260503224005 11 265 1.6 16.1 0.00 0.00 0.00 42 1008.1